Weather History for Newberry, SC

Change the Weather History Date:

Wednesday, December 12, 2012

  Actual Average (KFDW) Record (KFDW)
Temperature  
Mean Temperature 44 °F -  
Max Temperature 48 °F 56 °F 57 °F (2011)
Min Temperature 41 °F 35 °F 32 °F (2010)
Degree Days  
Heating Degree Days 20    
Moisture  
Dew Point 40 °F    
Average Humidity 88    
Maximum Humidity 100    
Minimum Humidity 62    
Precipitation  
Precipitation 0.26 in - - ()
Sea Level Pressure  
Sea Level Pressure 30.25 in    
Wind  
Wind Speed 10 mph (NE)    
Max Wind Speed 17 mph    
Max Gust Speed 29 mph    
Visibility 9 miles    
Events Rain    
Averages and records for this station are not official NWS values.
T = Trace of Precipitation, MM = Missing Value Source: NWS Daily Summary

Daily Weather History Graph

Daily Weather History Graph

Search for Another Location

Airport:

Trip Planner

Search our weather history database for the weather conditions in past years. The results will help you decide how hot, cold, wet, or windy it might be!

Date:

Astronomy

Dec. 12, 2012 Rise Set
Actual Time 7:23 AM EST 5:17 PM EST
Civil Twilight 6:55 AM EST 5:45 PM EST
Nautical Twilight 6:24 AM EST 6:16 PM EST
Astronomical Twilight 5:53 AM EST 6:47 PM EST
Moon 6:27 AM EST (12/12) 4:52 PM EST (12/12)
Length of Visible Light 10h 49m
Length of Day
9h 53m
Waning Crescent, 1% of the Moon is Illuminated
Dec 12
Waning Crescent
Dec 13
New
Dec 20
First Quarter
Dec 28
Full
Jan 4
Last Quarter

Hourly Weather History & Observations

Time (EST) Temp. Windchill Dew Point Humidity Pressure Visibility Wind Dir Wind Speed Gust Speed Precip Events Conditions
1:15 AM 46.4 °F 41.9 °F 37.4 °F 71% 30.15 in 10.0 mi NNE 9.2 mph - N/A   Scattered Clouds
1:55 AM 46.4 °F 42.9 °F 37.4 °F 71% 30.16 in 10.0 mi NNE 6.9 mph - N/A   Scattered Clouds
3:15 AM 44.6 °F 39.7 °F 33.8 °F 66% 30.17 in 10.0 mi NNE 9.2 mph - N/A   Scattered Clouds
5:55 AM 42.8 °F 37.5 °F 33.8 °F 70% 30.19 in 10.0 mi NNE 9.2 mph - N/A   Clear
6:35 AM 42.8 °F 37.0 °F 33.8 °F 70% 30.19 in 10.0 mi NNE 10.4 mph - N/A   Scattered Clouds
7:35 AM 42.8 °F 37.0 °F 33.8 °F 70% 30.21 in 10.0 mi NNE 10.4 mph - N/A   Scattered Clouds
8:15 AM 42.8 °F 37.0 °F 33.8 °F 70% 30.22 in 10.0 mi NNE 10.4 mph - N/A   Clear
8:55 AM 44.6 °F 40.2 °F 33.8 °F 66% 30.23 in 10.0 mi NE 8.1 mph - N/A   Clear
9:15 AM 44.6 °F 39.7 °F 33.8 °F 66% 30.24 in 10.0 mi NE 9.2 mph - N/A   Clear
9:35 AM 44.6 °F 38.4 °F 33.8 °F 66% 30.24 in 10.0 mi NNE 12.7 mph 16.1 mph N/A   Clear
9:55 AM 46.4 °F 40.4 °F 33.8 °F 62% 30.24 in 10.0 mi NE 13.8 mph - N/A   Clear
10:15 AM 48.2 °F - 35.6 °F 62% 30.25 in 10.0 mi NE 11.5 mph - N/A   Clear
10:35 AM 48.2 °F - 35.6 °F 62% 30.26 in 10.0 mi NE 12.7 mph - N/A   Mostly Cloudy
10:55 AM 48.2 °F - 35.6 °F 62% 30.27 in 10.0 mi NE 6.9 mph - N/A   Overcast
11:15 AM 48.2 °F - 37.4 °F 66% 30.26 in 10.0 mi NNE 10.4 mph - N/A   Overcast
11:35 AM 48.2 °F - 37.4 °F 66% 30.27 in 10.0 mi NE 10.4 mph - N/A   Overcast
11:55 AM 46.4 °F 41.9 °F 41.0 °F 81% 30.27 in 7.0 mi NE 9.2 mph - 0.01 in Rain Light Rain
12:15 PM 44.6 °F 40.2 °F 41.0 °F 87% 30.26 in 7.0 mi North 8.1 mph - 0.02 in Rain Rain
12:35 PM 44.6 °F 40.7 °F 42.8 °F 93% 30.26 in 10.0 mi North 6.9 mph - 0.04 in Rain Light Rain
12:55 PM 44.6 °F 39.7 °F 42.8 °F 93% 30.26 in 5.0 mi NNE 9.2 mph - 0.05 in Rain Rain
1:15 PM 44.6 °F 39.7 °F 42.8 °F 93% 30.24 in 10.0 mi NNE 9.2 mph - 0.01 in Rain Light Rain
1:35 PM 44.6 °F 39.2 °F 42.8 °F 93% 30.24 in 10.0 mi NNE 10.4 mph - 0.02 in Rain Rain
1:55 PM 44.6 °F 39.7 °F 44.6 °F 100% 30.24 in 10.0 mi NNE 9.2 mph - 0.03 in Rain Light Rain
2:15 PM 44.6 °F 38.8 °F 44.6 °F 100% 30.23 in 7.0 mi NNE 11.5 mph - N/A Rain Light Rain
2:35 PM 44.6 °F 39.7 °F 44.6 °F 100% 30.23 in 10.0 mi NE 9.2 mph - 0.01 in   Overcast
2:55 PM 44.6 °F 40.2 °F 44.6 °F 100% 30.23 in 10.0 mi NE 8.1 mph 17.3 mph 0.02 in Rain Rain
3:15 PM 44.6 °F 39.2 °F 42.8 °F 93% 30.23 in 7.0 mi NE 10.4 mph - N/A   Overcast
3:35 PM 44.6 °F 39.7 °F 42.8 °F 93% 30.24 in 10.0 mi NE 9.2 mph - N/A   Overcast
3:55 PM 42.8 °F 36.6 °F 42.8 °F 100% 30.24 in 10.0 mi NNE 11.5 mph 16.1 mph N/A   Overcast
4:15 PM 42.8 °F 38.0 °F 42.8 °F 100% 30.23 in 10.0 mi NE 8.1 mph - N/A   Overcast
4:35 PM 42.8 °F 38.6 °F 42.8 °F 100% 30.26 in 10.0 mi NNE 6.9 mph - N/A   Light Drizzle
4:55 PM 42.8 °F 37.0 °F 42.8 °F 100% 30.26 in 7.0 mi NE 10.4 mph 16.1 mph 0.01 in Rain Rain
5:15 PM 42.8 °F 38.6 °F 42.8 °F 100% 30.27 in 7.0 mi NE 6.9 mph - N/A Rain Light Rain
5:35 PM 42.8 °F 38.0 °F 42.8 °F 100% 30.25 in 7.0 mi NE 8.1 mph - 0.01 in Rain Rain
5:55 PM 42.8 °F 35.8 °F 42.8 °F 100% 30.27 in 7.0 mi NNE 13.8 mph - 0.01 in   Drizzle
6:15 PM 42.8 °F 35.8 °F 42.8 °F 100% 30.23 in 7.0 mi NE 13.8 mph 19.6 mph N/A Rain Light Rain
6:35 PM 42.8 °F 36.2 °F 42.8 °F 100% 30.26 in 10.0 mi NE 12.7 mph 18.4 mph 0.01 in Rain Light Rain
7:35 PM 41.0 °F 33.9 °F 41.0 °F 100% 30.28 in 7.0 mi NE 12.7 mph - 0.02 in Rain Light Rain
7:55 PM 41.0 °F 33.9 °F 41.0 °F 100% 30.28 in 10.0 mi NNE 12.7 mph 16.1 mph 0.03 in Rain Light Rain
8:15 PM 41.0 °F 33.9 °F 41.0 °F 100% 30.28 in 7.0 mi NE 12.7 mph 16.1 mph 0.01 in   Drizzle
8:35 PM 41.0 °F 33.9 °F 41.0 °F 100% 30.27 in 7.0 mi NE 12.7 mph 17.3 mph 0.02 in   Overcast
8:55 PM 41.0 °F 33.9 °F 41.0 °F 100% 30.27 in 7.0 mi NE 12.7 mph 18.4 mph 0.03 in   Overcast
9:15 PM 41.0 °F 32.5 °F 41.0 °F 100% 30.26 in 10.0 mi NE 17.3 mph 20.7 mph N/A   Overcast
9:35 PM 41.0 °F 33.5 °F 41.0 °F 100% 30.27 in 10.0 mi NNE 13.8 mph 17.3 mph 0.01 in   Overcast
9:55 PM 41.0 °F 34.3 °F 41.0 °F 100% 30.27 in 10.0 mi NNE 11.5 mph - 0.02 in   Overcast
10:15 PM 42.8 °F 37.5 °F 42.8 °F 100% 30.29 in 10.0 mi NNE 9.2 mph 16.1 mph 0.01 in   Overcast
10:35 PM 42.8 °F 38.6 °F 41.0 °F 93% 30.34 in 10.0 mi NW 6.9 mph - 0.01 in   Overcast
10:55 PM 42.8 °F 39.3 °F 41.0 °F 93% 30.34 in 5.0 mi NNE 5.8 mph - 0.02 in Rain Rain
11:15 PM 41.0 °F 32.8 °F 41.0 °F 100% 30.31 in 7.0 mi NE 16.1 mph 21.9 mph N/A Rain Rain
11:35 PM 41.0 °F 32.8 °F 41.0 °F 100% 30.29 in 7.0 mi ENE 16.1 mph 21.9 mph 0.01 in Rain Rain
11:55 PM 41.0 °F 32.8 °F 41.0 °F 100% 30.23 in 7.0 mi ENE 16.1 mph 28.8 mph 0.02 in Rain Light Rain